Volver al catálogo

CZ-6A DEB

ActivoSSO
NORAD 56248·DEBRIS·🇨🇳 China

Lanzado Nov 11, 2022 desde Taiyuan Satellite Launch Center

Loading…

Próximos Pases (próximas 24 horas)

TLE

ActualizadoSource: Space-Track

Época: Sep 14, 2026, 09:22 UTC

1 56248U 22151ABQ 26257.39048340  .00000340  00000-0  23961-3 0  9990
2 56248  98.8776 239.6248 0076000 127.3221 233.4903 14.03114141178647

Sigue CZ-6A DEB en tiempo real con AllMySat

Download on the App Store